Weather History for Hurlburt Field, FL

Change the Weather History Date:

Monday, November 25, 2013

  Actual Average Record
Temperature  
Mean Temperature 52 °F -  
Max Temperature 63 °F 66 °F 78 °F (2001)
Min Temperature 45 °F 47 °F 30 °F (2012)
Degree Days  
Heating Degree Days 12    
Growing Degree Days 2 (Base 50)    
Moisture  
Dew Point 40 °F    
Average Humidity 64    
Maximum Humidity 88    
Minimum Humidity 50    
Precipitation  
Precipitation 0.18 in - - ()
Sea Level Pressure  
Sea Level Pressure 30.17 in    
Wind  
Wind Speed 11 mph (East)    
Max Wind Speed 20 mph    
Max Gust Speed 25 mph    
Visibility 10 miles    
Events Rain    
Averages and records for this station are not official NWS values.
T = Trace of Precipitation, MM = Missing Value Source: NWS Daily Summary

Daily Weather History Graph

Daily Weather History Graph

Search for Another Location

Airport:

Trip Planner

Search our weather history database for the weather conditions in past years. The results will help you decide how hot, cold, wet, or windy it might be!

Date:

Astronomy

Nov. 25, 2013 Rise Set
Actual Time 6:21 AM CST 4:46 PM CST
Civil Twilight 5:55 AM CST 5:12 PM CST
Nautical Twilight 5:25 AM CST 5:41 PM CST
Astronomical Twilight 4:56 AM CST 6:10 PM CST
Moon 11:52 PM CST (11/25) 11:54 AM CST (11/25)
Length of Visible Light 11h 16m
Length of Day
10h 25m
Waning Gibbous, 51% of the Moon is Illuminated
Nov 25
Waning Gibbous
Nov 25
Last Quarter
Dec 2
New
Dec 9
First Quarter
Dec 17
Full

Hourly Weather History & Observations

Time (CST) Temp. Windchill Dew Point Humidity Pressure Visibility Wind Dir Wind Speed Gust Speed Precip Events Conditions
12:58 AM 48.4 °F - 31.8 °F 53% 30.30 in 10.0 mi East 9.2 mph - N/A   Clear
1:58 AM 46.6 °F - 30.2 °F 53% 30.30 in 10.0 mi East 10.4 mph - N/A   Partly Cloudy
2:58 AM 45.5 °F 41.8 °F 28.8 °F 52% 30.30 in 10.0 mi ENE 6.9 mph - N/A   Scattered Clouds
3:18 AM 46.4 °F 41.9 °F 28.4 °F 50% 30.28 in 10.0 mi ENE 9.2 mph - N/A   Mostly Cloudy
3:33 AM 46.4 °F 41.5 °F 30.2 °F 53% 30.28 in 10.0 mi East 10.4 mph - N/A   Overcast
3:43 AM 46.4 °F 41.1 °F 30.2 °F 53% 30.27 in 10.0 mi ENE 11.5 mph - N/A   Overcast
3:48 AM 46.4 °F 41.1 °F 30.2 °F 53% 30.27 in 10.0 mi East 11.5 mph - N/A   Overcast
3:53 AM 46.4 °F 41.5 °F 30.2 °F 53% 30.27 in 10.0 mi East 10.4 mph - N/A   Mostly Cloudy
3:58 AM 45.9 °F 41.7 °F 29.8 °F 54% 30.28 in 10.0 mi ENE 8.1 mph - N/A   Mostly Cloudy
4:03 AM 46.4 °F 41.9 °F 32.0 °F 57% 30.27 in 10.0 mi East 9.2 mph - N/A   Mostly Cloudy
4:08 AM 46.4 °F 42.4 °F 32.0 °F 57% 30.27 in 10.0 mi East 8.1 mph - N/A   Mostly Cloudy
4:18 AM 46.4 °F 42.4 °F 32.0 °F 57% 30.27 in 10.0 mi ENE 8.1 mph - N/A   Mostly Cloudy
4:58 AM 46.6 °F - 31.8 °F 56% 30.28 in 10.0 mi ENE 10.4 mph - N/A   Overcast
5:58 AM 46.2 °F 40.5 °F 32.0 °F 58% 30.28 in 10.0 mi East 12.7 mph - N/A   Overcast
6:58 AM 46.0 °F 39.9 °F 31.3 °F 56% 30.29 in 10.0 mi ENE 13.8 mph - N/A   Overcast
7:58 AM 46.4 °F 41.9 °F 30.6 °F 54% 30.30 in 10.0 mi ENE 9.2 mph 16.1 mph N/A   Overcast
8:58 AM 47.5 °F - 31.8 °F 55% 30.30 in 10.0 mi East 10.4 mph - N/A   Overcast
9:58 AM 49.3 °F - 34.3 °F 56% 30.29 in 10.0 mi ENE 11.5 mph 21.9 mph 0.00 in   Overcast
10:58 AM 50.9 °F - 35.8 °F 56% 30.25 in 10.0 mi ENE 11.5 mph - N/A   Overcast
11:58 AM 54.7 °F - 38.7 °F 55% 30.21 in 10.0 mi East 12.7 mph - N/A   Overcast
12:58 PM 55.6 °F - 41.0 °F 58% 30.17 in 10.0 mi East 11.5 mph - N/A   Overcast
1:58 PM 57.7 °F - 43.3 °F 59% 30.15 in 10.0 mi East 13.8 mph - N/A   Overcast
2:17 PM 57.2 °F - 44.6 °F 63% 30.12 in 10.0 mi East 10.4 mph - N/A   Overcast
3:58 PM 59.0 °F - 46.2 °F 63% 30.11 in 10.0 mi East 15.0 mph 21.9 mph N/A   Overcast
4:55 PM 59.0 °F - 46.2 °F 63% 30.11 in 10.0 mi East 10.4 mph - N/A   Overcast
4:58 PM 59.0 °F - 46.2 °F 63% 30.11 in 10.0 mi East 10.4 mph - N/A   Overcast
5:58 PM 57.9 °F - 46.0 °F 65% 30.09 in 10.0 mi East 15.0 mph 23.0 mph N/A   Overcast
6:01 PM 59.0 °F - 46.2 °F 63% 30.09 in 10.0 mi East 15.0 mph 23.0 mph N/A   Overcast
6:58 PM 59.0 °F - 46.2 °F 63% 30.08 in 10.0 mi East 13.8 mph 23.0 mph N/A   Overcast
7:26 PM 57.2 °F - 48.2 °F 72% 30.06 in 10.0 mi East 13.8 mph - N/A   Light Drizzle
7:58 PM 56.5 °F - 49.1 °F 76% 30.07 in 10.0 mi East 11.5 mph - 0.00 in   Light Drizzle
8:58 PM 55.9 °F - 50.5 °F 82% 30.02 in 10.0 mi East 12.7 mph 20.7 mph 0.01 in Rain Light Rain
9:58 PM 56.5 °F - 51.1 °F 82% 30.01 in 10.0 mi ESE 10.4 mph - 0.01 in   Light Drizzle
10:00 PM 57.2 °F - 51.8 °F 82% 30.00 in 10.0 mi ESE 11.5 mph - N/A   Partly Cloudy
10:06 PM 57.2 °F - 51.8 °F 82% 30.00 in 10.0 mi ESE 13.8 mph 20.7 mph N/A Rain Light Rain
10:26 PM 57.2 °F - 53.6 °F 88% 29.98 in 7.0 mi East 11.5 mph - N/A Rain Rain
10:31 PM 57.2 °F - 53.6 °F 88% 29.99 in 6.0 mi East 9.2 mph - N/A Rain Light Rain
10:58 PM 60.3 °F - 56.7 °F 88% 29.98 in 6.0 mi SE 19.6 mph 24.2 mph 0.08 in Rain Light Rain
11:58 PM 63.3 °F - 59.4 °F 87% 29.96 in 5.0 mi ESE 17.3 mph 25.3 mph 0.08 in Rain Rain